Year,Month,Day,Hour,Minute,Value (Times are PST for temperature in C)
2014,09,15,00,00,12.90
2014,09,15,00,01,12.90
2014,09,15,00,02,12.90
2014,09,15,00,03,12.90
2014,09,15,00,04,12.90
2014,09,15,00,05,12.90
2014,09,15,00,06,12.80
2014,09,15,00,07,12.80
2014,09,15,00,08,12.80
2014,09,15,00,09,12.80
2014,09,15,00,10,12.80
2014,09,15,00,11,12.80
2014,09,15,00,12,12.80
2014,09,15,00,13,12.80
2014,09,15,00,14,12.80
2014,09,15,00,15,12.80
2014,09,15,00,16,12.80
2014,09,15,00,17,12.80
2014,09,15,00,18,12.80
2014,09,15,00,19,12.80
2014,09,15,00,20,12.70
2014,09,15,00,21,12.70
2014,09,15,00,22,12.70
2014,09,15,00,23,12.70
2014,09,15,00,24,12.70
2014,09,15,00,25,12.70
2014,09,15,00,26,12.70
2014,09,15,00,27,12.70
2014,09,15,00,28,12.70
2014,09,15,00,29,12.60
2014,09,15,00,30,12.60
2014,09,15,00,31,12.60
2014,09,15,00,32,12.60
2014,09,15,00,33,12.60
2014,09,15,00,34,12.60
2014,09,15,00,35,12.60
2014,09,15,00,36,12.60
2014,09,15,00,37,12.60
2014,09,15,00,38,12.60
2014,09,15,00,39,12.60
2014,09,15,00,40,12.60
2014,09,15,00,41,12.60
2014,09,15,00,42,12.60
2014,09,15,00,43,12.50
2014,09,15,00,44,12.50
2014,09,15,00,45,12.50
2014,09,15,00,46,12.50
2014,09,15,00,47,12.50
2014,09,15,00,48,12.50
2014,09,15,00,49,12.50
2014,09,15,00,50,12.40
2014,09,15,00,51,12.40
2014,09,15,00,52,12.40
2014,09,15,00,53,12.40
2014,09,15,00,54,12.40
2014,09,15,00,55,12.40
2014,09,15,00,56,12.40
2014,09,15,00,57,12.40
2014,09,15,00,58,12.40
2014,09,15,00,59,12.40
2014,09,15,01,00,12.40
2014,09,15,01,01,12.40
2014,09,15,01,02,12.40
2014,09,15,01,03,12.40
2014,09,15,01,04,12.40
2014,09,15,01,05,12.40
2014,09,15,01,06,12.30
2014,09,15,01,07,12.30
2014,09,15,01,08,12.30
2014,09,15,01,09,12.30
2014,09,15,01,10,12.30
2014,09,15,01,11,12.30
2014,09,15,01,12,12.30
2014,09,15,01,13,12.30
2014,09,15,01,14,12.20
2014,09,15,01,15,12.20
2014,09,15,01,16,12.20
2014,09,15,01,17,12.20
2014,09,15,01,18,12.20
2014,09,15,01,19,12.20
2014,09,15,01,20,12.20
2014,09,15,01,21,12.20
2014,09,15,01,22,12.20
2014,09,15,01,23,12.20
2014,09,15,01,24,12.10
2014,09,15,01,25,12.10
2014,09,15,01,26,12.10
2014,09,15,01,27,12.10
2014,09,15,01,28,12.10
2014,09,15,01,29,12.10
2014,09,15,01,30,12.10
2014,09,15,01,31,12.00
2014,09,15,01,32,12.00
2014,09,15,01,33,12.00
2014,09,15,01,34,12.00
2014,09,15,01,35,12.00
2014,09,15,01,36,12.00
2014,09,15,01,37,12.00
2014,09,15,01,38,12.00
2014,09,15,01,39,12.00
2014,09,15,01,40,11.90
2014,09,15,01,41,11.90
2014,09,15,01,42,11.90
2014,09,15,01,43,11.90
2014,09,15,01,44,11.90
2014,09,15,01,45,11.90
2014,09,15,01,46,11.90
2014,09,15,01,47,11.80
2014,09,15,01,48,11.80
2014,09,15,01,49,11.80
2014,09,15,01,50,11.80
2014,09,15,01,51,11.80
2014,09,15,01,52,11.80
2014,09,15,01,53,11.70
2014,09,15,01,54,11.80
2014,09,15,01,55,11.70
2014,09,15,01,56,11.80
2014,09,15,01,57,11.70
2014,09,15,01,58,11.70
2014,09,15,01,59,11.70
2014,09,15,02,00,11.70
2014,09,15,02,01,11.70
2014,09,15,02,02,11.70
2014,09,15,02,03,11.70
2014,09,15,02,04,11.70
2014,09,15,02,05,11.70
2014,09,15,02,06,11.70
2014,09,15,02,07,11.70
2014,09,15,02,08,11.70
2014,09,15,02,09,11.70
2014,09,15,02,10,11.70
2014,09,15,02,11,11.70
2014,09,15,02,12,11.70
2014,09,15,02,13,11.60
2014,09,15,02,14,11.60
2014,09,15,02,15,11.60
2014,09,15,02,16,11.60
2014,09,15,02,17,11.60
2014,09,15,02,18,11.60
2014,09,15,02,19,11.60
2014,09,15,02,20,11.60
2014,09,15,02,21,11.60
2014,09,15,02,22,11.60
2014,09,15,02,23,11.50
2014,09,15,02,24,11.50
2014,09,15,02,25,11.50
2014,09,15,02,26,11.50
2014,09,15,02,27,11.50
2014,09,15,02,28,11.40
2014,09,15,02,29,11.40
2014,09,15,02,30,11.40
2014,09,15,02,31,11.40
2014,09,15,02,32,11.40
2014,09,15,02,33,11.40
2014,09,15,02,34,11.40
2014,09,15,02,35,11.30
2014,09,15,02,36,11.30
2014,09,15,02,37,11.30
2014,09,15,02,38,11.30
2014,09,15,02,39,11.30
2014,09,15,02,40,11.30
2014,09,15,02,41,11.30
2014,09,15,02,42,11.30
2014,09,15,02,43,11.30
2014,09,15,02,44,11.30
2014,09,15,02,45,11.30
2014,09,15,02,46,11.30
2014,09,15,02,47,11.30
2014,09,15,02,48,11.30
2014,09,15,02,49,11.30
2014,09,15,02,50,11.30
2014,09,15,02,51,11.20
2014,09,15,02,52,11.20
2014,09,15,02,53,11.20
2014,09,15,02,54,11.20
2014,09,15,02,55,11.20
2014,09,15,02,56,11.20
2014,09,15,02,57,11.20
2014,09,15,02,58,11.20
2014,09,15,02,59,11.20
2014,09,15,03,00,11.20
2014,09,15,03,01,11.20
2014,09,15,03,02,11.20
2014,09,15,03,03,11.20
2014,09,15,03,04,11.10
2014,09,15,03,05,11.10
2014,09,15,03,06,11.10
2014,09,15,03,07,11.10
2014,09,15,03,08,11.10
2014,09,15,03,09,11.10
2014,09,15,03,10,11.10
2014,09,15,03,11,11.10
2014,09,15,03,12,11.10
2014,09,15,03,13,11.10
2014,09,15,03,14,11.10
2014,09,15,03,15,11.10
2014,09,15,03,16,11.10
2014,09,15,03,17,11.10
2014,09,15,03,18,11.10
2014,09,15,03,19,11.10
2014,09,15,03,20,11.10
2014,09,15,03,21,11.00
2014,09,15,03,22,11.00
2014,09,15,03,23,11.00
2014,09,15,03,24,11.00
2014,09,15,03,25,11.00
2014,09,15,03,26,10.90
2014,09,15,03,27,10.90
2014,09,15,03,28,10.90
2014,09,15,03,29,10.90
2014,09,15,03,30,10.90
2014,09,15,03,31,10.90
2014,09,15,03,32,10.90
2014,09,15,03,33,10.90
2014,09,15,03,34,10.80
2014,09,15,03,35,10.80
2014,09,15,03,36,10.80
2014,09,15,03,37,10.80
2014,09,15,03,38,10.80
2014,09,15,03,39,10.80
2014,09,15,03,40,10.80
2014,09,15,03,41,10.80
2014,09,15,03,42,10.80
2014,09,15,03,43,10.80
2014,09,15,03,44,10.80
2014,09,15,03,45,10.80
2014,09,15,03,46,10.80
2014,09,15,03,47,10.80
2014,09,15,03,48,10.80
2014,09,15,03,49,10.80
2014,09,15,03,50,10.80
2014,09,15,03,51,10.80
2014,09,15,03,52,10.80
2014,09,15,03,53,10.80
2014,09,15,03,54,10.80
2014,09,15,03,55,10.80
2014,09,15,03,56,10.80
2014,09,15,03,57,10.80
2014,09,15,03,58,10.70
2014,09,15,03,59,10.70
2014,09,15,04,00,10.70
2014,09,15,04,01,10.70
2014,09,15,04,02,10.70
2014,09,15,04,03,10.70
2014,09,15,04,04,10.70
2014,09,15,04,05,10.70
2014,09,15,04,06,10.70
2014,09,15,04,07,10.70
2014,09,15,04,08,10.70
2014,09,15,04,09,10.70
2014,09,15,04,10,10.70
2014,09,15,04,11,10.70
2014,09,15,04,12,10.70
2014,09,15,04,13,10.70
2014,09,15,04,14,10.80
2014,09,15,04,15,10.80
2014,09,15,04,16,10.80
2014,09,15,04,17,10.80
2014,09,15,04,18,10.80
2014,09,15,04,19,10.80
2014,09,15,04,20,10.80
2014,09,15,04,21,10.80
2014,09,15,04,22,10.80
2014,09,15,04,23,10.80
2014,09,15,04,24,10.80
2014,09,15,04,25,10.70
2014,09,15,04,26,10.70
2014,09,15,04,27,10.70
2014,09,15,04,28,10.70
2014,09,15,04,29,10.70
2014,09,15,04,30,10.70
2014,09,15,04,31,10.70
2014,09,15,04,32,10.70
2014,09,15,04,33,10.70
2014,09,15,04,34,10.70
2014,09,15,04,35,10.70
2014,09,15,04,36,10.70
2014,09,15,04,37,10.70
2014,09,15,04,38,10.70
2014,09,15,04,39,10.60
2014,09,15,04,40,10.60
2014,09,15,04,41,10.60
2014,09,15,04,42,10.60
2014,09,15,04,43,10.60
2014,09,15,04,44,10.60
2014,09,15,04,45,10.60
2014,09,15,04,46,10.60
2014,09,15,04,47,10.50
2014,09,15,04,48,10.50
2014,09,15,04,49,10.50
2014,09,15,04,50,10.50
2014,09,15,04,51,10.50
2014,09,15,04,52,10.50
2014,09,15,04,53,10.40
2014,09,15,04,54,10.40
2014,09,15,04,55,10.40
2014,09,15,04,56,10.40
2014,09,15,04,57,10.40
2014,09,15,04,58,10.40
2014,09,15,04,59,10.40
2014,09,15,05,00,10.40
2014,09,15,05,01,10.40
2014,09,15,05,02,10.40
2014,09,15,05,03,10.40
2014,09,15,05,04,10.40
2014,09,15,05,05,10.40
2014,09,15,05,06,10.40
2014,09,15,05,07,10.40
2014,09,15,05,08,10.40
2014,09,15,05,09,10.40
2014,09,15,05,10,10.40
2014,09,15,05,11,10.40
2014,09,15,05,12,10.40
2014,09,15,05,13,10.40
2014,09,15,05,14,10.40
2014,09,15,05,15,10.40
2014,09,15,05,16,10.40
2014,09,15,05,17,10.40
2014,09,15,05,18,10.40
2014,09,15,05,19,10.40
2014,09,15,05,20,10.40
2014,09,15,05,21,10.30
2014,09,15,05,22,10.30
2014,09,15,05,23,10.30
2014,09,15,05,24,10.30
2014,09,15,05,25,10.30
2014,09,15,05,26,10.30
2014,09,15,05,27,10.30
2014,09,15,05,28,10.30
2014,09,15,05,29,10.30
2014,09,15,05,30,10.30
2014,09,15,05,31,10.30
2014,09,15,05,32,10.30
2014,09,15,05,33,10.30
2014,09,15,05,34,10.30
2014,09,15,05,35,10.30
2014,09,15,05,36,10.30
2014,09,15,05,37,10.30
2014,09,15,05,38,10.30
2014,09,15,05,39,10.20
2014,09,15,05,40,10.20
2014,09,15,05,41,10.20
2014,09,15,05,42,10.20
2014,09,15,05,43,10.20
2014,09,15,05,44,10.20
2014,09,15,05,45,10.20
2014,09,15,05,46,10.20
2014,09,15,05,47,10.20
2014,09,15,05,48,10.20
2014,09,15,05,49,10.20
2014,09,15,05,50,10.20
2014,09,15,05,51,10.20
2014,09,15,05,52,10.20
2014,09,15,05,53,10.20
2014,09,15,05,54,10.20
2014,09,15,05,55,10.20
2014,09,15,05,56,10.20
2014,09,15,05,57,10.20
2014,09,15,05,58,10.10
2014,09,15,05,59,10.10
2014,09,15,06,00,10.10
2014,09,15,06,01,10.10
2014,09,15,06,02,10.10
2014,09,15,06,03,10.10
2014,09,15,06,04,10.10
2014,09,15,06,05,10.10
2014,09,15,06,06,10.00
2014,09,15,06,07,10.00
2014,09,15,06,08,10.00
2014,09,15,06,09,10.00
2014,09,15,06,10,10.00
2014,09,15,06,11,9.90
2014,09,15,06,12,9.90
2014,09,15,06,13,9.90
2014,09,15,06,14,9.90
2014,09,15,06,15,9.90
2014,09,15,06,16,10.00
2014,09,15,06,17,10.00
2014,09,15,06,18,10.00
2014,09,15,06,19,10.00
2014,09,15,06,20,10.00
2014,09,15,06,21,10.00
2014,09,15,06,22,10.00
2014,09,15,06,23,10.00
2014,09,15,06,24,10.00
2014,09,15,06,25,10.00
2014,09,15,06,26,10.00
2014,09,15,06,27,10.00
2014,09,15,06,28,10.10
2014,09,15,06,29,10.10
2014,09,15,06,30,10.10
2014,09,15,06,31,10.10
2014,09,15,06,32,10.10
2014,09,15,06,33,10.10
2014,09,15,06,34,10.10
2014,09,15,06,35,10.10
2014,09,15,06,36,10.10
2014,09,15,06,37,10.10
2014,09,15,06,38,10.10
2014,09,15,06,39,10.10
2014,09,15,06,40,10.10
2014,09,15,06,41,10.10
2014,09,15,06,42,10.10
2014,09,15,06,43,10.10
2014,09,15,06,44,10.10
2014,09,15,06,45,10.10
2014,09,15,06,46,10.10
2014,09,15,06,47,10.10
2014,09,15,06,48,10.10
2014,09,15,06,49,10.10
2014,09,15,06,50,10.00
2014,09,15,06,51,10.00
2014,09,15,06,52,10.00
2014,09,15,06,53,10.00
2014,09,15,06,54,10.00
2014,09,15,06,55,10.00
2014,09,15,06,56,10.00
2014,09,15,06,57,10.00
2014,09,15,06,58,10.00
2014,09,15,06,59,10.00
2014,09,15,07,00,10.00
2014,09,15,07,01,10.00
2014,09,15,07,02,10.00
2014,09,15,07,03,10.00
2014,09,15,07,04,10.00
2014,09,15,07,05,10.00
2014,09,15,07,06,10.00
2014,09,15,07,07,10.00
2014,09,15,07,08,10.00
2014,09,15,07,09,10.00
2014,09,15,07,10,9.90
2014,09,15,07,11,9.90
2014,09,15,07,12,9.90
2014,09,15,07,13,9.90
2014,09,15,07,14,9.90
2014,09,15,07,15,9.90
2014,09,15,07,16,9.90
2014,09,15,07,17,9.90
2014,09,15,07,18,9.90
2014,09,15,07,19,9.90
2014,09,15,07,20,9.90
2014,09,15,07,21,9.90
2014,09,15,07,22,10.00
2014,09,15,07,23,10.00
2014,09,15,07,24,10.00
2014,09,15,07,25,10.10
2014,09,15,07,26,10.10
2014,09,15,07,27,10.10
2014,09,15,07,28,10.20
2014,09,15,07,29,10.30
2014,09,15,07,30,10.30
2014,09,15,07,31,10.40
2014,09,15,07,32,10.50
2014,09,15,07,33,10.60
2014,09,15,07,34,10.70
2014,09,15,07,35,10.70
2014,09,15,07,36,10.80
2014,09,15,07,37,10.80
2014,09,15,07,38,10.80
2014,09,15,07,39,10.90
2014,09,15,07,40,10.90
2014,09,15,07,41,10.90
2014,09,15,07,42,11.00
2014,09,15,07,43,11.00
2014,09,15,07,44,11.10
2014,09,15,07,45,11.10
2014,09,15,07,46,11.10
2014,09,15,07,47,11.10
2014,09,15,07,48,11.20
2014,09,15,07,49,11.20
2014,09,15,07,50,11.30
2014,09,15,07,51,11.30
2014,09,15,07,52,11.40
2014,09,15,07,53,11.40
2014,09,15,07,54,11.50
2014,09,15,07,55,11.60
2014,09,15,07,56,11.70
2014,09,15,07,57,11.80
2014,09,15,07,58,11.80
2014,09,15,07,59,12.00
2014,09,15,08,00,12.10
2014,09,15,08,01,12.20
2014,09,15,08,02,12.30
2014,09,15,08,03,12.40
2014,09,15,08,04,12.60
2014,09,15,08,05,12.70
2014,09,15,08,06,12.80
2014,09,15,08,07,12.90
2014,09,15,08,08,13.00
2014,09,15,08,09,13.10
2014,09,15,08,10,13.20
2014,09,15,08,11,13.30
2014,09,15,08,12,13.40
2014,09,15,08,13,13.50
2014,09,15,08,14,13.60
2014,09,15,08,15,13.60
2014,09,15,08,16,13.70
2014,09,15,08,17,13.80
2014,09,15,08,18,13.90
2014,09,15,08,19,14.00
2014,09,15,08,20,14.10
2014,09,15,08,21,14.20
2014,09,15,08,22,14.30
2014,09,15,08,23,14.30
2014,09,15,08,24,14.40
2014,09,15,08,25,14.40
2014,09,15,08,26,14.50
2014,09,15,08,27,14.50
2014,09,15,08,28,14.60
2014,09,15,08,29,14.60
2014,09,15,08,30,14.70
2014,09,15,08,31,14.70
2014,09,15,08,32,14.80
2014,09,15,08,33,14.80
2014,09,15,08,34,14.90
2014,09,15,08,35,15.00
2014,09,15,08,36,15.00
2014,09,15,08,37,15.00
2014,09,15,08,38,15.00
2014,09,15,08,39,15.10
2014,09,15,08,40,15.20
2014,09,15,08,41,15.30
2014,09,15,08,42,15.40
2014,09,15,08,43,15.60
2014,09,15,08,44,15.70
2014,09,15,08,45,15.90
2014,09,15,08,46,16.20
2014,09,15,08,47,16.40
2014,09,15,08,48,16.60
2014,09,15,08,49,16.70
2014,09,15,08,50,16.90
2014,09,15,08,51,17.10
2014,09,15,08,52,17.20
2014,09,15,08,53,17.40
2014,09,15,08,54,17.60
2014,09,15,08,55,17.70
2014,09,15,08,56,17.90
2014,09,15,08,57,18.00
2014,09,15,08,58,18.10
2014,09,15,08,59,18.20
2014,09,15,09,00,18.30
2014,09,15,09,01,18.40
2014,09,15,09,02,18.50
2014,09,15,09,03,18.60
2014,09,15,09,04,18.70
2014,09,15,09,05,18.80
2014,09,15,09,06,18.90
2014,09,15,09,07,19.00
2014,09,15,09,08,19.00
2014,09,15,09,09,19.10
2014,09,15,09,10,19.20
2014,09,15,09,11,19.20
2014,09,15,09,12,19.20
2014,09,15,09,13,19.20
2014,09,15,09,14,19.20
2014,09,15,09,15,19.20
2014,09,15,09,16,19.20
2014,09,15,09,17,19.20
2014,09,15,09,18,19.20
2014,09,15,09,19,19.10
2014,09,15,09,20,19.10
2014,09,15,09,21,19.00
2014,09,15,09,22,18.90
2014,09,15,09,23,18.90
2014,09,15,09,24,18.80
2014,09,15,09,25,18.80
2014,09,15,09,26,18.80
2014,09,15,09,27,18.80
2014,09,15,09,28,18.80
2014,09,15,09,29,18.80
2014,09,15,09,30,18.80
2014,09,15,09,31,18.80
2014,09,15,09,32,18.90
2014,09,15,09,33,18.90
2014,09,15,09,34,18.90
2014,09,15,09,35,18.90
2014,09,15,09,36,19.00
2014,09,15,09,37,19.00
2014,09,15,09,38,19.00
2014,09,15,09,39,18.90
2014,09,15,09,40,18.90
2014,09,15,09,41,18.90
2014,09,15,09,42,18.90
2014,09,15,09,43,18.90
2014,09,15,09,44,18.90
2014,09,15,09,45,18.90
2014,09,15,09,46,18.80
2014,09,15,09,47,18.80
2014,09,15,09,48,18.80
2014,09,15,09,49,18.80
2014,09,15,09,50,18.80
2014,09,15,09,51,18.90
2014,09,15,09,52,18.90
2014,09,15,09,53,18.90
2014,09,15,09,54,19.00
2014,09,15,09,55,19.00
2014,09,15,09,56,19.10
2014,09,15,09,57,19.10
2014,09,15,09,58,19.10
2014,09,15,09,59,19.20
2014,09,15,10,00,19.20
2014,09,15,10,01,19.20
2014,09,15,10,02,19.20
2014,09,15,10,03,19.20
2014,09,15,10,04,19.20
2014,09,15,10,05,19.20
2014,09,15,10,06,19.20
2014,09,15,10,07,19.10
2014,09,15,10,08,19.10
2014,09,15,10,09,19.10
2014,09,15,10,10,19.10
2014,09,15,10,11,19.10
2014,09,15,10,12,19.00
2014,09,15,10,13,19.00
2014,09,15,10,14,18.90
2014,09,15,10,15,18.90
2014,09,15,10,16,18.80
2014,09,15,10,17,18.80
2014,09,15,10,18,18.80
2014,09,15,10,19,18.70
2014,09,15,10,20,18.70
2014,09,15,10,21,18.70
2014,09,15,10,22,18.60
2014,09,15,10,23,18.60
2014,09,15,10,24,18.60
2014,09,15,10,25,18.60
2014,09,15,10,26,18.60
2014,09,15,10,27,18.60
2014,09,15,10,28,18.60
2014,09,15,10,29,18.60
2014,09,15,10,30,18.60
2014,09,15,10,31,18.60
2014,09,15,10,32,18.60
2014,09,15,10,33,18.60
2014,09,15,10,34,18.60
2014,09,15,10,35,18.60
2014,09,15,10,36,18.60
2014,09,15,10,37,18.60
2014,09,15,10,38,18.60
2014,09,15,10,39,18.70
2014,09,15,10,40,18.70
2014,09,15,10,41,18.70
2014,09,15,10,42,18.70
2014,09,15,10,43,18.70
2014,09,15,10,44,18.70
2014,09,15,10,45,18.70
2014,09,15,10,46,18.70
2014,09,15,10,47,18.70
2014,09,15,10,48,18.70
2014,09,15,10,49,18.70
2014,09,15,10,50,18.70
2014,09,15,10,51,18.70
2014,09,15,10,52,18.70
2014,09,15,10,53,18.70
2014,09,15,10,54,18.70
2014,09,15,10,55,18.70
2014,09,15,10,56,18.80
2014,09,15,10,57,18.80
2014,09,15,10,58,18.90
2014,09,15,10,59,18.90
2014,09,15,11,00,18.90
2014,09,15,11,01,18.90
2014,09,15,11,02,18.80
2014,09,15,11,03,18.80
2014,09,15,11,04,18.80
2014,09,15,11,05,18.80
2014,09,15,11,06,18.80
2014,09,15,11,07,18.80
2014,09,15,11,08,18.80
2014,09,15,11,09,18.80
2014,09,15,11,10,18.80
2014,09,15,11,11,18.80
2014,09,15,11,12,18.80
2014,09,15,11,13,18.70
2014,09,15,11,14,18.70
2014,09,15,11,15,18.70
2014,09,15,11,16,18.70
2014,09,15,11,17,18.80
2014,09,15,11,18,18.80
2014,09,15,11,19,18.80
2014,09,15,11,20,18.90
2014,09,15,11,21,18.90
2014,09,15,11,22,19.00
2014,09,15,11,23,19.00
2014,09,15,11,24,19.10
2014,09,15,11,25,19.10
2014,09,15,11,26,19.10
2014,09,15,11,27,19.10
2014,09,15,11,28,19.20
2014,09,15,11,29,19.20
2014,09,15,11,30,19.20
2014,09,15,11,31,19.20
2014,09,15,11,32,19.20
2014,09,15,11,33,19.30
2014,09,15,11,34,19.30
2014,09,15,11,35,19.30
2014,09,15,11,36,19.30
2014,09,15,11,37,19.30
2014,09,15,11,38,19.30
2014,09,15,11,39,19.30
2014,09,15,11,40,19.40
2014,09,15,11,41,19.40
2014,09,15,11,42,19.40
2014,09,15,11,43,19.40
2014,09,15,11,44,19.50
2014,09,15,11,45,19.60
2014,09,15,11,46,19.60
2014,09,15,11,47,19.70
2014,09,15,11,48,19.80
2014,09,15,11,49,19.90
2014,09,15,11,50,19.90
2014,09,15,11,51,19.90
2014,09,15,11,52,19.90
2014,09,15,11,53,20.00
2014,09,15,11,54,20.00
2014,09,15,11,55,20.00
2014,09,15,11,56,20.10
2014,09,15,11,57,20.10
2014,09,15,11,58,20.10
2014,09,15,11,59,20.20
2014,09,15,12,00,20.30
2014,09,15,12,01,20.30
2014,09,15,12,02,20.40
2014,09,15,12,03,20.40
2014,09,15,12,04,20.40
2014,09,15,12,05,20.30
2014,09,15,12,06,20.30
2014,09,15,12,07,20.30
2014,09,15,12,08,20.20
2014,09,15,12,09,20.10
2014,09,15,12,10,20.00
2014,09,15,12,11,19.90
2014,09,15,12,12,19.90
2014,09,15,12,13,20.00
2014,09,15,12,14,20.00
2014,09,15,12,15,20.00
2014,09,15,12,16,20.00
2014,09,15,12,17,20.00
2014,09,15,12,18,19.90
2014,09,15,12,19,19.90
2014,09,15,12,20,19.80
2014,09,15,12,21,19.80
2014,09,15,12,22,19.80
2014,09,15,12,23,19.80
2014,09,15,12,24,19.80
2014,09,15,12,25,19.70
2014,09,15,12,26,19.70
2014,09,15,12,27,19.70
2014,09,15,12,28,19.70
2014,09,15,12,29,19.70
2014,09,15,12,30,19.70
2014,09,15,12,31,19.70
2014,09,15,12,32,19.70
2014,09,15,12,33,19.80
2014,09,15,12,34,19.80
2014,09,15,12,35,19.80
2014,09,15,12,36,19.80
2014,09,15,12,37,19.70
2014,09,15,12,38,19.70
2014,09,15,12,39,19.70
2014,09,15,12,40,19.80
2014,09,15,12,41,19.90
2014,09,15,12,42,20.00
2014,09,15,12,43,20.00
2014,09,15,12,44,20.10
2014,09,15,12,45,20.20
2014,09,15,12,46,20.30
2014,09,15,12,47,20.30
2014,09,15,12,48,20.30
2014,09,15,12,49,20.30
2014,09,15,12,50,20.30
2014,09,15,12,51,20.20
2014,09,15,12,52,20.20
2014,09,15,12,53,20.20
2014,09,15,12,54,20.30
2014,09,15,12,55,20.30
2014,09,15,12,56,20.30
2014,09,15,12,57,20.30
2014,09,15,12,58,20.40
2014,09,15,12,59,20.40
2014,09,15,13,00,20.40
2014,09,15,13,01,20.40
2014,09,15,13,02,20.40
2014,09,15,13,03,20.40
2014,09,15,13,04,20.50
2014,09,15,13,05,20.60
2014,09,15,13,06,20.60
2014,09,15,13,07,20.60
2014,09,15,13,08,20.60
2014,09,15,13,09,20.70
2014,09,15,13,10,20.70
2014,09,15,13,11,20.70
2014,09,15,13,12,20.70
2014,09,15,13,13,20.60
2014,09,15,13,14,20.60
2014,09,15,13,15,20.60
2014,09,15,13,16,20.50
2014,09,15,13,17,20.50
2014,09,15,13,18,20.40
2014,09,15,13,19,20.40
2014,09,15,13,20,20.40
2014,09,15,13,21,20.40
2014,09,15,13,22,20.50
2014,09,15,13,23,20.50
2014,09,15,13,24,20.60
2014,09,15,13,25,20.60
2014,09,15,13,26,20.70
2014,09,15,13,27,20.70
2014,09,15,13,28,20.70
2014,09,15,13,29,20.80
2014,09,15,13,30,20.80
2014,09,15,13,31,20.80
2014,09,15,13,32,20.90
2014,09,15,13,33,20.90
2014,09,15,13,34,20.90
2014,09,15,13,35,21.00
2014,09,15,13,36,21.10
2014,09,15,13,37,21.10
2014,09,15,13,38,21.10
2014,09,15,13,39,21.10
2014,09,15,13,40,21.10
2014,09,15,13,41,21.10
2014,09,15,13,42,21.10
2014,09,15,13,43,21.00
2014,09,15,13,44,21.00
2014,09,15,13,45,21.00
2014,09,15,13,46,21.10
2014,09,15,13,47,21.10
2014,09,15,13,48,21.10
2014,09,15,13,49,21.10
2014,09,15,13,50,21.10
2014,09,15,13,51,21.10
2014,09,15,13,52,21.10
2014,09,15,13,53,21.10
2014,09,15,13,54,21.10
2014,09,15,13,55,21.10
2014,09,15,13,56,21.10
2014,09,15,13,57,21.20
2014,09,15,13,58,21.20
2014,09,15,13,59,21.20
2014,09,15,14,00,21.20
2014,09,15,14,01,21.20
2014,09,15,14,02,21.20
2014,09,15,14,03,21.20
2014,09,15,14,04,21.30
2014,09,15,14,05,21.30
2014,09,15,14,06,21.30
2014,09,15,14,07,21.40
2014,09,15,14,08,21.40
2014,09,15,14,09,21.40
2014,09,15,14,10,21.50
2014,09,15,14,11,21.60
2014,09,15,14,12,21.60
2014,09,15,14,13,21.60
2014,09,15,14,14,21.60
2014,09,15,14,15,21.60
2014,09,15,14,16,21.50
2014,09,15,14,17,21.50
2014,09,15,14,18,21.40
2014,09,15,14,19,21.40
2014,09,15,14,20,21.50
2014,09,15,14,21,21.50
2014,09,15,14,22,21.60
2014,09,15,14,23,21.60
2014,09,15,14,24,21.60
2014,09,15,14,25,21.70
2014,09,15,14,26,21.70
2014,09,15,14,27,21.70
2014,09,15,14,28,21.60
2014,09,15,14,29,21.60
2014,09,15,14,30,21.60
2014,09,15,14,31,21.60
2014,09,15,14,32,21.70
2014,09,15,14,33,21.70
2014,09,15,14,34,21.70
2014,09,15,14,35,21.70
2014,09,15,14,36,21.70
2014,09,15,14,37,21.80
2014,09,15,14,38,21.80
2014,09,15,14,39,21.80
2014,09,15,14,40,21.80
2014,09,15,14,41,21.80
2014,09,15,14,42,21.80
2014,09,15,14,43,21.80
2014,09,15,14,44,21.80
2014,09,15,14,45,21.80
2014,09,15,14,46,21.80
2014,09,15,14,47,21.90
2014,09,15,14,48,21.90
2014,09,15,14,49,21.90
2014,09,15,14,50,22.00
2014,09,15,14,51,22.00
2014,09,15,14,52,22.10
2014,09,15,14,53,22.00
2014,09,15,14,54,22.00
2014,09,15,14,55,22.00
2014,09,15,14,56,22.00
2014,09,15,14,57,21.90
2014,09,15,14,58,21.90
2014,09,15,14,59,21.80
2014,09,15,15,00,21.80
2014,09,15,15,01,21.80
2014,09,15,15,02,21.70
2014,09,15,15,03,21.70
2014,09,15,15,04,21.70
2014,09,15,15,05,21.70
2014,09,15,15,06,21.70
2014,09,15,15,07,21.70
2014,09,15,15,08,21.70
2014,09,15,15,09,21.70
2014,09,15,15,10,21.70
2014,09,15,15,11,21.80
2014,09,15,15,12,21.80
2014,09,15,15,13,21.80
2014,09,15,15,14,21.80
2014,09,15,15,15,21.90
2014,09,15,15,16,22.00
2014,09,15,15,17,22.00
2014,09,15,15,18,22.10
2014,09,15,15,19,22.10
2014,09,15,15,20,22.10
2014,09,15,15,21,22.10
2014,09,15,15,22,22.10
2014,09,15,15,23,22.20
2014,09,15,15,24,22.20
2014,09,15,15,25,22.20
2014,09,15,15,26,22.30
2014,09,15,15,27,22.30
2014,09,15,15,28,22.40
2014,09,15,15,29,22.40
2014,09,15,15,30,22.40
2014,09,15,15,31,22.40
2014,09,15,15,32,22.50
2014,09,15,15,33,22.60
2014,09,15,15,34,22.60
2014,09,15,15,35,22.60
2014,09,15,15,36,22.60
2014,09,15,15,37,22.50
2014,09,15,15,38,22.60
2014,09,15,15,39,22.60
2014,09,15,15,40,22.60
2014,09,15,15,41,22.60
2014,09,15,15,42,22.70
2014,09,15,15,43,22.70
2014,09,15,15,44,22.80
2014,09,15,15,45,22.80
2014,09,15,15,46,22.90
2014,09,15,15,47,22.90
2014,09,15,15,48,23.00
2014,09,15,15,49,23.00
2014,09,15,15,50,23.10
2014,09,15,15,51,23.10
2014,09,15,15,52,23.10
2014,09,15,15,53,23.10
2014,09,15,15,54,23.10
2014,09,15,15,55,23.10
2014,09,15,15,56,23.00
2014,09,15,15,57,23.00
2014,09,15,15,58,22.90
2014,09,15,15,59,22.90
2014,09,15,16,00,22.90
2014,09,15,16,01,22.80
2014,09,15,16,02,22.80
2014,09,15,16,03,22.80
2014,09,15,16,04,22.80
2014,09,15,16,05,22.70
2014,09,15,16,06,22.60
2014,09,15,16,07,22.60
2014,09,15,16,08,22.60
2014,09,15,16,09,22.50
2014,09,15,16,10,22.40
2014,09,15,16,11,22.40
2014,09,15,16,12,22.40
2014,09,15,16,13,22.40
2014,09,15,16,14,22.40
2014,09,15,16,15,22.40
2014,09,15,16,16,22.50
2014,09,15,16,17,22.50
2014,09,15,16,18,22.50
2014,09,15,16,19,22.50
2014,09,15,16,20,22.50
2014,09,15,16,21,22.60
2014,09,15,16,22,22.60
2014,09,15,16,23,22.60
2014,09,15,16,24,22.60
2014,09,15,16,25,22.70
2014,09,15,16,26,22.70
2014,09,15,16,27,22.70
2014,09,15,16,28,22.70
2014,09,15,16,29,22.70
2014,09,15,16,30,22.70
2014,09,15,16,31,22.70
2014,09,15,16,32,22.70
2014,09,15,16,33,22.70
2014,09,15,16,34,22.70
2014,09,15,16,35,22.70
2014,09,15,16,36,22.70
2014,09,15,16,37,22.70
2014,09,15,16,38,22.70
2014,09,15,16,39,22.70
2014,09,15,16,40,22.70
2014,09,15,16,41,22.80
2014,09,15,16,42,22.80
2014,09,15,16,43,22.90
2014,09,15,16,44,22.90
2014,09,15,16,45,23.00
2014,09,15,16,46,23.10
2014,09,15,16,47,23.20
2014,09,15,16,48,23.30
2014,09,15,16,49,23.30
2014,09,15,16,50,23.30
2014,09,15,16,51,23.40
2014,09,15,16,52,23.40
2014,09,15,16,53,23.40
2014,09,15,16,54,23.40
2014,09,15,16,55,23.40
2014,09,15,16,56,23.50
2014,09,15,16,57,23.50
2014,09,15,16,58,23.60
2014,09,15,16,59,23.60
2014,09,15,17,00,23.60
2014,09,15,17,01,23.60
2014,09,15,17,02,23.60
2014,09,15,17,03,23.60
2014,09,15,17,04,23.50
2014,09,15,17,05,23.50
2014,09,15,17,06,23.40
2014,09,15,17,07,23.40
2014,09,15,17,08,23.30
2014,09,15,17,09,23.30
2014,09,15,17,10,23.30
2014,09,15,17,11,23.30
2014,09,15,17,12,23.30
2014,09,15,17,13,23.30
2014,09,15,17,14,23.30
2014,09,15,17,15,23.30
2014,09,15,17,16,23.30
2014,09,15,17,17,23.40
2014,09,15,17,18,23.40
2014,09,15,17,19,23.40
2014,09,15,17,20,23.50